Location: Aalen
(48.8330°N, 10.1000°E)
Time: 13:31:46
(UTC+02:00)

UNISAT 6 - Pass Details

Date: 10 April 2023
Orbit: 600 x 680 km, 97.7° (Epoch: 28 May)

Event Time Altitude Azimuth Distance (km) Brightness Sun altitude
Rises 05:56:09 0° 165° (SSE) 2,963 ? -7.7°
Reaches altitude 10° 05:58:20 10° 166° (SSE) 2,069 ? -7.3°
Maximum altitude 06:02:53 89° 254° (WSW) 676 ? -6.6°
Drops below altitude 10° 06:07:33 10° 347° (NNW) 2,124 ? -5.9°
Sets 06:09:49 0° 347° (NNW) 3,049 ? -5.6°
